Stations météo

réclame
Mon MeteoGroup
Zwiesel, Allemagne (10796): Température de l'air & dewpoint: 13.02.2020 22:00:00 - 19.02.2020 22:00:00 (CET)Zwiesel, Allemagne (10796): Température de l'air 5cm & Température de l'air -5cm: 13.02.2020 22:00:00 - 19.02.2020 22:00:00 (CET)Zwiesel, Allemagne (10796): Température de l'air -20cm & Température de l'air -100cm: 13.02.2020 22:00:00 - 19.02.2020 22:00:00 (CET)Zwiesel, Allemagne (10796): Vitesse du vent & gusts: 13.02.2020 22:00:00 - 19.02.2020 22:00:00 (CET)Zwiesel, Allemagne (10796): Direction du vent: 13.02.2020 22:00:00 - 19.02.2020 22:00:00 (CET)Zwiesel, Allemagne (10796): reduced air pressure: 13.02.2020 22:00:00 - 19.02.2020 22:00:00 (CET)Zwiesel, Allemagne (10796): visibility: 13.02.2020 22:00:00 - 19.02.2020 22:00:00 (CET)Zwiesel, Allemagne (10796): Ensoleillement: 13.02.2020 22:00:00 - 19.02.2020 22:00:00 (CET)Zwiesel, Allemagne (10796): Quantités de précipitations: 13.02.2020 22:00:00 - 19.02.2020 22:00:00 (CET)
Date & Time tt [°C] td [°C] tt 5cm [°C] tt -5cm [°C] tt -20cm [°C] tt -100cm [°C] ff [km/h] ff [knt] fx [km/h] fx [knt] dd ppp [hPa] vv [km] sd [min] rr [mm]
19.02.2020 22:00:00 1,0 -1,4 0,2 0,8 2,3 3,2 12 6 18 10 WSW 1025,7 51 0 0,0
19.02.2020 21:00:00 0,9 -1,3 0,2 0,9 2,4 3,2 10 5 19 11 WSW 1025,5 45 0 0,0
19.02.2020 20:00:00 0,6 -1,1 0,2 1,1 2,4 3,2 7 4 14 8 SW 1025,3 39 0 0,0
19.02.2020 19:00:00 0,6 -1,1 0,1 1,3 2,4 3,2 8 4 25 14 SW 1024,4 34 0 0,0
19.02.2020 18:00:00 1,6 -1,5 0,8 1,9 2,4 3,2 15 8 32 18 WNW 1023,1 46 0 0,1
19.02.2020 17:00:00 1,6 -1,0 1,1 2,4 2,4 3,2 22 12 36 19 W 1021,8 57 5 0,0
19.02.2020 16:00:00 1,4 -0,5 1,6 2,5 2,3 3,1 21 12 36 19 W 1020,7 12 0 0,5
19.02.2020 15:00:00 1,2 -0,2 0,6 2,7 2,3 3,1 12 7 28 15 W 1019,6 3,0 0 0,2
19.02.2020 14:00:00 1,5 0,3 1,9 1,6 2,3 3,1 12 6 37 20 WSW 1019,0 40 0 1,1
19.02.2020 13:00:00 1,6 0,6 1,6 1,9 2,4 3,1 10 5 18 10 S 1018,3 22 0 0,9
19.02.2020 12:00:00 2,0 1,0 2,1 1,6 2,4 3,1 7 4 19 11 SSW 1018,6 20 0 0,5
19.02.2020 11:00:00 1,4 0,3 1,3 1,2 2,4 3,1 8 4 23 12 S 1019,5 14 0 0,6
19.02.2020 10:00:00 1,1 0,0 0,7 1,0 2,5 3,1 14 8 26 14 SSW 1020,2 11 0 0,4
19.02.2020 09:00:00 1,1 0,1 0,7 0,9 2,5 3,1 8 5 18 10 S 1020,7 31 0 0,4
19.02.2020 08:00:00 0,5 -0,4 0,1 1,0 2,6 3,1 12 6 27 15 SSW 1021,4 2,0 0 0,3
19.02.2020 07:00:00 2,3 -2,7 1,8 1,0 2,7 3,1 13 7 26 14 SSW 1021,1 63 0 0,0
19.02.2020 06:00:00 2,3 -2,5 1,6 1,0 2,7 3,1 9 5 17 9 S 1021,8 57 0 0,0
19.02.2020 05:00:00 2,4 -2,5 1,8 1,1 2,8 3,1 8 5 18 10 SSW 1022,2 64 0 0,0
19.02.2020 04:00:00 2,2 -2,9 1,0 1,2 2,9 3,1 5 3 15 8 SW 1023,1 63 0 0,0
19.02.2020 03:00:00 2,5 -2,7 1,7 1,4 3,0 3,1 6 4 23 12 SSW 1023,9 60 0 0,0
19.02.2020 02:00:00 2,1 -2,0 1,3 1,5 3,0 3,1 6 4 11 6 SE 1024,8 56 0 0,0
19.02.2020 01:00:00 2,2 -2,0 1,4 1,6 3,1 3,1 5 3 14 8 ESE 1025,3 69 0 0,0
19.02.2020 00:00:00 3,0 -2,2 1,9 1,7 3,2 3,1 7 4 14 8 SSW 1025,7 45 0 0,0
18.02.2020 23:00:00 3,2 -1,9 2,4 1,9 3,3 3,1 6 3 14 7 SSW 1026,3 60 0 0,0
18.02.2020 22:00:00 3,3 -2,1 2,5 2,0 3,3 3,1 9 5 16 8 SW 1026,9 56 0 0,0
18.02.2020 21:00:00 3,5 -2,3 2,2 2,3 3,4 3,0 6 3 16 8 S 1027,1 43 0 0,0
18.02.2020 20:00:00 3,5 -2,2 1,6 2,6 3,4 3,0 5 3 18 10 W 1027,2 71 0 0,0
18.02.2020 19:00:00 3,8 -1,8 2,4 3,2 3,4 3,0 12 6 30 16 SW 1027,1 70 0 0,0
18.02.2020 18:00:00 4,2 -1,0 3,3 3,6 3,4 3,0 10 6 33 18 WSW 1026,7 75 0 0,0
18.02.2020 17:00:00 4,7 -1,2 3,9 4,2 3,4 3,0 15 8 35 19 WSW 1026,5 59 17 0,0
18.02.2020 16:00:00 5,1 -1,6 5,0 4,5 3,3 3,0 13 7 42 23 WSW 1026,4 59 12 0,0
18.02.2020 15:00:00 4,7 -0,8 4,8 4,3 3,3 3,0 17 9 31 17 WSW 1026,9 63 0 0,0
18.02.2020 14:00:00 4,3 -1,4 4,2 4,5 3,3 3,0 18 10 44 24 WSW 1027,2 74 4 0,0
18.02.2020 13:00:00 4,6 -0,4 5,2 4,2 3,3 3,0 16 9 33 18 WSW 1027,3 67 9 0,0
18.02.2020 12:00:00 3,7 -0,6 3,7 3,4 3,3 3,0 14 8 43 23 WSW 1027,9 61 0 0,0
18.02.2020 11:00:00 3,7 -1,0 3,7 3,4 3,3 3,0 15 8 41 22 WSW 1027,9 75 - 0,0
18.02.2020 10:00:00 3,6 -0,4 3,1 3,1 3,3 3,0 24 13 38 20 WSW 1027,8 61 - 0,0
18.02.2020 09:00:00 3,1 0,6 2,5 2,7 3,4 3,0 17 9 28 15 WSW 1027,5 62 - 0,0
18.02.2020 08:00:00 3,3 0,7 2,6 2,7 3,5 3,0 16 9 36 19 WSW 1026,9 20 - 0,0
18.02.2020 07:00:00 3,3 1,2 2,6 2,8 3,5 3,0 15 8 26 14 WSW 1026,2 34 - 0,1
18.02.2020 06:00:00 3,5 0,5 3,0 2,8 3,6 3,0 18 10 39 21 W 1026,1 57 - 0,0
18.02.2020 05:00:00 3,1 1,1 2,2 3,0 3,7 3,0 9 5 30 16 WSW 1025,4 63 - 0,1
18.02.2020 04:00:00 3,6 1,7 2,9 3,7 3,7 3,0 21 11 33 18 W 1024,5 18 - 1,2
18.02.2020 03:00:00 4,9 2,9 4,0 3,9 3,7 3,0 15 8 26 14 WSW 1023,7 41 - 0,3
18.02.2020 02:00:00 4,8 3,2 4,1 3,9 3,8 3,0 9 5 25 13 SW 1023,7 16 - 0,1
18.02.2020 01:00:00 5,2 2,6 4,0 4,1 3,8 3,0 13 7 19 11 W 1023,5 62 - 0,1
18.02.2020 00:00:00 5,1 2,9 4,4 4,3 3,8 3,0 5 3 25 13 W 1023,0 58 - 0,1
17.02.2020 23:00:00 4,9 3,1 4,1 4,6 3,8 2,9 8 5 30 16 W 1022,5 39 - 3,3
17.02.2020 22:00:00 6,0 5,0 5,6 5,0 3,8 2,9 8 5 15 8 SSW 1020,9 6 - 1,5
17.02.2020 21:00:00 6,3 4,8 5,5 4,9 3,8 2,9 9 5 14 8 SSW 1020,6 29 - 0,9
17.02.2020 20:00:00 5,5 4,8 5,0 5,0 3,8 2,9 5 3 10 5 SE 1020,7 34 - 0,5
17.02.2020 19:00:00 6,1 4,8 5,4 5,4 3,7 2,9 5 3 15 8 S 1020,7 13 - 0,8
17.02.2020 18:00:00 7,0 4,3 5,8 5,8 3,7 2,9 6 3 27 14 WSW 1020,1 24 - 0,0
17.02.2020 17:00:00 7,7 3,8 7,2 6,4 3,5 2,9 13 7 21 11 W 1019,5 75 - 0,0
17.02.2020 16:00:00 8,5 3,4 7,8 6,9 3,3 2,9 13 7 21 11 NW 1018,7 75 - 0,0
17.02.2020 15:00:00 9,3 3,2 9,0 7,6 3,1 2,9 8 4 19 11 WNW 1018,0 75 0 0,0
17.02.2020 14:00:00 9,4 3,7 9,4 7,6 2,8 2,9 13 7 22 12 WNW 1018,0 75 0 0,0
17.02.2020 13:00:00 10,0 3,7 10,6 8,3 2,6 2,9 10 5 16 9 WSW 1018,1 72 0 0,0
17.02.2020 12:00:00 9,9 3,7 10,1 6,8 2,4 2,9 10 5 20 11 WSW 1018,6 75 0 0,0
17.02.2020 11:00:00 9,6 3,8 9,2 5,8 2,3 2,9 11 6 18 10 W 1018,9 75 0 0,0
17.02.2020 10:00:00 9,6 4,2 9,5 4,5 2,2 2,9 7 4 33 18 W 1018,9 75 0 0,0
17.02.2020 09:00:00 8,7 3,5 7,6 2,4 2,3 2,9 8 5 19 10 WNW 1019,0 68 0 0,0
17.02.2020 08:00:00 4,2 -0,7 1,9 0,2 2,4 2,9 4 2 14 8 N 1020,2 57 0 0,0
17.02.2020 07:00:00 6,6 -0,1 1,6 0,2 2,5 2,9 4 2 9 5 N 1018,7 75 0 0,0
17.02.2020 06:00:00 4,8 -1,1 1,3 0,6 2,6 2,9 3 2 8 4 NNW 1018,6 62 0 0,0
17.02.2020 05:00:00 7,4 -0,9 2,8 0,7 2,7 2,9 5 3 8 4 N 1017,5 75 0 0,0
17.02.2020 04:00:00 6,0 -0,9 1,7 0,7 2,9 2,9 3 2 8 4 NNE 1017,4 74 0 0,0
17.02.2020 03:00:00 4,4 -0,6 1,7 0,8 3,0 2,9 5 3 7 4 NNE 1017,8 66 0 0,0
17.02.2020 02:00:00 3,0 -0,8 0,6 0,5 3,2 2,9 6 3 11 6 NNW 1018,4 75 0 0,0
17.02.2020 01:00:00 1,4 -0,8 -0,8 0,7 3,4 2,9 3 1 10 5 NW 1018,9 59 0 0,0
17.02.2020 00:00:00 1,9 -0,3 -0,4 1,5 3,5 2,9 3 2 7 4 S 1018,4 47 0 0,0
16.02.2020 23:00:00 1,8 -0,5 -0,5 1,8 3,7 2,9 4 2 9 5 WNW 1018,9 40 0 0,0
16.02.2020 22:00:00 3,2 0,3 1,5 2,9 3,8 2,8 4 2 6 3 WSW 1018,6 48 0 0,0
16.02.2020 21:00:00 3,9 0,8 0,7 3,1 3,9 2,8 0 0 5 3 N 1018,5 66 0 0,0
16.02.2020 20:00:00 5,3 1,1 2,1 4,6 3,8 2,8 2 1 7 4 W 1018,2 57 0 0,0
16.02.2020 19:00:00 7,4 2,0 5,8 6,3 3,7 2,8 4 2 7 4 NW 1017,6 71 0 0,0
16.02.2020 18:00:00 9,9 0,2 6,2 7,5 3,4 2,8 3 2 9 5 WNW 1017,0 60 0 0,0
16.02.2020 17:00:00 11,8 0,9 10,2 9,0 3,1 2,8 4 2 9 5 SSW 1017,1 48 5 0,0
16.02.2020 16:00:00 13,2 -1,5 12,0 9,7 2,7 2,8 2 1 16 9 WNW 1017,3 74 14 0,0
16.02.2020 15:00:00 13,4 -1,5 13,2 9,8 2,3 2,8 6 3 11 6 S 1017,9 71 23 0,0
16.02.2020 14:00:00 12,3 -0,5 12,6 9,4 1,9 2,8 3 1 5 3 ESE 1018,8 57 10 0,0
16.02.2020 13:00:00 10,5 -0,5 9,8 7,2 1,8 2,8 3 2 5 3 NW 1020,1 72 27 0,0
16.02.2020 12:00:00 7,5 1,9 7,2 1,4 1,8 2,8 2 1 5 3 WNW 1021,3 60 18 0,0
16.02.2020 11:00:00 3,5 1,6 4,5 0,3 1,8 2,8 2 1 4 2 NNE 1022,6 38 3 0,0
16.02.2020 10:00:00 1,3 -0,5 1,4 0,2 1,9 2,8 2 1 4 2 W 1023,7 27 26 0,0
16.02.2020 09:00:00 -0,4 -1,6 0,1 0,2 2,0 2,8 2 1 8 4 N 1024,4 32 18 0,0
16.02.2020 08:00:00 -1,9 -2,4 -2,4 0,2 2,0 2,8 4 2 6 3 S 1025,2 32 0 0,0
16.02.2020 07:00:00 -2,0 -2,4 -3,5 0,2 2,1 2,8 3 1 5 3 N 1025,1 38 0 0,0
16.02.2020 06:00:00 -2,2 -2,6 -3,6 0,3 2,2 2,8 3 2 5 3 N 1025,5 25 0 0,0
16.02.2020 05:00:00 -1,5 -2,0 -3,1 0,3 2,3 2,8 3 1 5 3 SSE 1025,5 36 0 0,0
16.02.2020 04:00:00 -1,0 -1,5 -2,7 0,4 2,4 2,8 0 0 6 3 N 1025,2 42 0 0,0
16.02.2020 03:00:00 -1,4 -1,9 -2,0 0,4 2,6 2,8 4 2 9 5 N 1026,0 29 0 0,0
16.02.2020 02:00:00 -1,6 -2,0 -1,9 0,4 2,7 2,8 0 0 4 2 N 1026,8 29 0 0,0
16.02.2020 01:00:00 -1,7 -2,1 -2,6 0,5 2,9 2,8 3 1 5 3 N 1026,3 13 0 0,0
16.02.2020 00:00:00 -1,5 -1,8 -2,7 0,5 3,1 2,8 0 0 6 3 N 1026,4 20 0 0,0
15.02.2020 23:00:00 -0,8 -1,1 -3,1 0,6 3,3 2,8 0 0 6 4 N 1026,4 20 0 0,0
15.02.2020 22:00:00 -1,0 -1,4 -3,3 0,7 3,6 2,8 4 2 7 4 NW 1026,5 10 0 0,0
15.02.2020 21:00:00 0,0 -0,5 -2,3 1,0 3,8 2,8 3 1 11 6 NNW 1026,2 13 0 0,0
15.02.2020 20:00:00 1,6 0,9 -1,2 1,9 4,0 2,8 3 2 6 4 S 1026,2 24 0 0,0
15.02.2020 19:00:00 3,0 1,4 -0,3 3,6 4,0 2,8 3 1 8 4 S 1025,5 37 0 0,0
15.02.2020 18:00:00 4,5 1,7 1,4 5,8 3,9 2,8 3 1 12 7 W 1024,6 17 21 0,0
15.02.2020 17:00:00 7,2 1,7 6,3 8,3 3,6 2,8 6 4 16 9 S 1024,3 46 27 0,0
15.02.2020 16:00:00 7,8 2,0 8,2 10,8 3,1 2,8 7 4 15 8 SSW 1024,2 63 36 0,0
15.02.2020 15:00:00 8,1 2,4 9,4 12,0 2,6 2,8 6 3 13 7 S 1024,9 59 28 0,0
15.02.2020 14:00:00 7,3 1,6 9,4 12,6 2,0 2,8 8 5 14 8 SW 1025,2 50 26 0,0
15.02.2020 13:00:00 6,4 1,8 11,2 10,7 1,6 2,8 4 2 12 7 NW 1025,8 46 30 0,0
15.02.2020 12:00:00 5,4 2,2 8,4 9,1 1,2 2,8 8 4 12 6 W 1026,9 43 33 0,0
15.02.2020 11:00:00 4,3 1,0 6,0 5,6 1,1 2,8 4 2 6 3 WNW 1027,4 35 38 0,0
15.02.2020 10:00:00 2,1 0,5 3,3 2,3 1,1 2,8 3 1 4 2 WNW 1028,2 27 31 0,0
15.02.2020 09:00:00 0,4 0,0 0,0 0,2 1,1 2,8 0 0 4 2 N 1028,7 2,4 0 0,0
15.02.2020 08:00:00 0,0 -0,2 -0,1 0,2 1,2 2,8 2 1 4 2 N 1028,9 0,8 0 0,0
15.02.2020 07:00:00 0,0 -0,2 0,0 0,2 1,2 2,8 0 0 5 3 N 1028,8 9 0 0,0
15.02.2020 06:00:00 0,3 0,1 0,1 0,2 1,3 2,8 2 1 4 2 S 1028,8 7 0 0,0
15.02.2020 05:00:00 -0,2 -0,5 -0,7 0,2 1,3 2,8 2 1 7 4 NNW 1029,3 0,1 0 0,0
15.02.2020 04:00:00 1,0 0,6 0,2 0,6 1,3 2,8 4 2 5 3 SSE 1029,5 8 0 0,0
15.02.2020 03:00:00 1,3 0,9 0,6 0,9 1,3 2,8 4 2 11 6 N 1029,4 1,7 0 0,0
15.02.2020 02:00:00 1,5 1,0 1,2 1,1 1,3 2,8 5 3 8 4 E 1029,9 9 0 0,0
15.02.2020 01:00:00 1,9 1,4 1,4 1,1 1,3 2,8 4 2 6 4 S 1029,6 17 0 0,0
15.02.2020 00:00:00 1,5 0,7 0,9 1,2 1,3 2,8 4 2 11 6 NNW 1029,1 19 0 0,0
14.02.2020 23:00:00 2,8 0,9 2,0 1,5 1,3 2,8 10 5 19 10 W 1028,3 42 0 0,0
14.02.2020 22:00:00 2,4 1,5 1,9 1,6 1,3 2,8 10 5 15 8 WNW 1028,2 23 0 0,0
14.02.2020 21:00:00 2,6 1,3 2,2 1,8 1,3 2,8 5 3 15 8 SSW 1027,8 26 0 0,0
14.02.2020 20:00:00 2,5 1,2 2,0 1,9 1,3 2,8 9 5 16 9 WSW 1027,1 28 0 0,2
14.02.2020 19:00:00 2,9 1,1 2,1 2,0 1,2 2,8 9 5 16 9 W 1025,9 19 0 0,1
14.02.2020 18:00:00 2,7 1,6 2,1 2,3 1,1 2,8 3 2 14 7 ENE 1025,0 10 0 0,5
14.02.2020 17:00:00 2,9 1,9 2,5 2,7 1,0 2,9 7 4 19 10 ESE 1023,8 26 0 0,2
14.02.2020 16:00:00 3,7 1,5 3,0 3,2 0,9 2,9 9 5 28 15 W 1023,3 57 0 0,0
14.02.2020 15:00:00 3,3 1,9 3,2 3,2 0,8 2,9 3 2 39 21 SSW 1023,1 57 0 0,7
14.02.2020 14:00:00 4,3 1,7 3,7 2,9 0,8 2,9 7 4 24 13 SW 1022,3 46 2 0,0
14.02.2020 13:00:00 3,7 1,5 3,1 0,9 0,7 2,9 10 5 31 17 W 1021,9 53 0 0,0
14.02.2020 12:00:00 3,4 1,8 2,3 0,3 0,8 2,9 17 9 35 19 W 1021,1 33 0 0,2
14.02.2020 11:00:00 2,8 1,7 1,8 0,2 0,8 2,9 10 6 18 10 W 1020,2 11 0 0,8
14.02.2020 10:00:00 2,4 1,3 1,6 0,2 0,8 2,9 11 6 29 16 W 1018,9 9 0 0,7
14.02.2020 09:00:00 2,6 1,5 1,7 0,1 0,8 2,9 17 9 32 17 W 1017,2 5 0 0,4
14.02.2020 08:00:00 2,2 1,2 1,4 0,1 0,8 2,9 17 9 30 16 W 1015,6 9 0 1,4
14.02.2020 07:00:00 2,0 1,5 1,2 0,1 0,8 2,9 5 3 10 6 SW 1014,0 8 0 1,4
14.02.2020 06:00:00 1,3 0,7 1,0 0,1 0,8 2,9 5 3 22 12 SSE 1013,1 5 0 2,1
14.02.2020 05:00:00 2,1 1,0 1,1 0,1 0,9 2,9 8 5 28 15 W 1011,5 13 0 2,8
14.02.2020 04:00:00 3,0 1,7 1,8 0,1 0,9 2,9 13 7 24 13 SW 1010,4 16 0 0,4
14.02.2020 03:00:00 2,9 1,7 2,0 0,1 0,9 2,9 9 5 18 10 SSW 1010,3 58 0 0,2
14.02.2020 02:00:00 2,6 1,6 1,7 0,1 0,9 2,9 6 3 24 13 SSW 1009,8 23 0 0,2
14.02.2020 01:00:00 2,9 1,3 1,7 0,1 0,9 2,9 16 8 28 15 WSW 1009,3 12 0 0,3
14.02.2020 00:00:00 3,3 1,5 2,1 0,1 0,9 2,9 20 11 32 17 SW 1008,9 47 0 0,0
13.02.2020 23:00:00 1,6 1,1 0,8 0,2 0,9 2,9 5 3 16 9 SSW 1009,3 5 0 0,2
13.02.2020 22:00:00 1,2 0,5 0,6 0,2 0,9 2,9 8 4 13 7 ESE 1009,0 27 0 0,5

tt = Température de l'air
td = dewpoint
tt 5cm = Température de l'air 5cm
tt -5cm = Température de l'air -5cm
tt -20cm = Température de l'air -20cm
tt -100cm = Température de l'air -100cm
ff = Vitesse du vent
fx = gusts
dd = Direction du vent
ppp = reduced air pressure
vv = visibility
sd = Ensoleillement
rr = Quantités de précipitations

stations d'obs. à proximité